Hourly Data Report for December 10, 2017

VICTORIA UNIVERSITY CS
BRITISH COLUMBIA

48°27'25.200" N
123°18'16.600" W
60.10 m
1018598
71783
WYJ

Download Data

Hourly Data (December 2017)
Hourly Data Report for December 10, 2017
TIME
LST
Temp Definition
°C
Dew Point Definition
°C
Rel Hum Definition
%
Precip. Amount Definition
mm

Wind Dir Definition
10's deg

Wind Spd Definition
km/h
Visibility Definition
km
Stn Press Definition
kPa
Hmdx Definition


Wind Chill Definition


Weather Definition


00:00 4.5 3.7 94 0.0 33 8   102.31     LegendNANA
01:00 4.9 3.6 91 0.0 35 8   102.31     LegendNANA
02:00 4.6 2.8 88 0.0 34 9   102.38     LegendNANA
03:00 4.9 3.2 89 0.0 33 7   102.45     LegendNANA
04:00 5.2 2.5 83 0.0 1 7   102.40     LegendNANA
05:00 5.3 3.1 86 0.0 1 7   102.41     LegendNANA
06:00 5.4 4.3 92 0.0 36 6   102.39     LegendNANA
07:00 5.0 3.7 92 0.0 34 7   102.37     LegendNANA
08:00 5.4 3.7 89 0.0 35 8   102.34     LegendNANA
09:00 5.8 3.7 86 0.0 1 11   102.35     LegendNANA
10:00 6.7 3.5 80 0.0 35 8   102.35     LegendNANA
11:00 7.4 3.5 76 0.0 2 11   102.34     LegendNANA
12:00 7.9 4.7 80 0.0 36 10   102.30     LegendNANA
13:00 7.9 4.4 78 0.0 36 10   102.21     LegendNANA
14:00 8.0 3.8 75 0.0 36 10   102.13     LegendNANA
15:00 7.5 4.1 79 0.0 36 7   102.11     LegendNANA
16:00 6.9 4.8 87 0.0 2 6   102.11     LegendNANA
17:00 5.7 4.7 93 0.0 2 3   102.07     LegendNANA
18:00 5.4 4.8 96 0.0 2 5   102.02     LegendNANA
19:00 5.2 4.8 97 0.0 1 5   101.98     LegendNANA
20:00 5.7 4.7 93 0.0 35 11   101.97     LegendNANA
21:00 5.6 4.5 93 0.0 35 7   101.97     LegendNANA
22:00 5.1 4.1 93 0.0 36 9   101.97     LegendNANA
23:00 5.3 3.8 90 0.0 2 8   101.96     LegendNANA

Notes on Data Quality.

Legend

  • E = Estimated
  • M = Missing
  • NA = Not Available*
  • [empty] = Indicates an unobserved value
Date modified: